SCP
0 0 0 0 0 0 0 0 0 0 0 0 0 0 0 0 0 0 0 0 0 1 1 1 1 0 0 1 1 1 1 0 0 0 0 0 0 0 0 0 0 0 0
0 0 0 0 0 0 0 0 0 0 0 0 0 0 0 0 0 0 0 0 1 1 1 1 1 1 1 1 1 1 1 0 0 0 0 0 0 0 0 0 0 0 0
0 0 0 0 0 0 0 0 0 0 0 0 0 0 0 0 0 0 0 1 1 1 1 0 1 1 1 0 0 0 0 0 1 0 0 0 0 0 0 0 0 0 0
0 0 0 0 0 0 0 0 0 0 0 0 0 0 0 0 0 0 0 0 0 0 0 0 1 1 0 1 0 0 0 0 0 0 0 0 0 0 0 0 0 0 0
0 0 0 0 0 0 0 0 0 0 0 0 0 0 0 0 -0 0 0 0 0 0 0 1 1 0 0 0 0 0 0 -0 0 0 0 0 0 0 0 0 0 0 0
0 0 0 0 0 0 0 0 0 0 0 0 0 0 0 0 0 0 0 0 0 0 0 0 0 0 1 1 1 1 1 0 0 0 0 0 0 0 0 0 0 0 0
0 0 0 0 0 0 0 0 0 0 0 0 0 0 0 0 0 0 0 0 0 0 0 0 0 0 0 0 1 0 0 0 0 0 0 0 0 0 0 0 0 0 0
0 0 0 0 0 0 0 0 0 0 0 0 0 0 0 0 0 0 0 0 0 0 0 0 0 0 0 0 0 0 0 0 0 0 0 0 0 0 0 0 0 0 0
0 0 0 0 0 0 1 0 0 0 0 0 0 0 0 0 0 0 0 0 0 0 0 0 0 0 0 0 0 0 0 0 0 0 0 0 0 0 0 0 0 0 0
0 0 0 0 -0 0 -0 0 0 0 0 0 0 0 0 0 0 0 0 0 0 0 0 0 0 0 0 0 0 0 0 0 0 0 0 0 0 0 0 0 0 0 0
0 0 0 0 0 0 1 1 1 1 0 0 0 0 0 0 0 0 0 0 0 0 0 0 0 0 0 0 0 0 0 0 0 0 0 0 0 0 0 0 0 0 0
0 0 0 0 0 0 0 0 0 0 0 0 0 0 0 0 0 0 0 0 0 0 0 0 0 0 0 0 0 0 0 0 0 0 0 0 0 0 0 0 0 0 0
0 0 0 0 0 0 0 0 0 0 0 0 0 0 0 0 0 0 0 0 0 0 0 0 0 0 0 0 0 0 0 0 0 0 0 0 0 0 0 0 0 0 0
0 0 0 0 0 0 0 0 0 0 0 0 0 0 0 0 0 0 0 0 0 0 0 0 0 0 0 0 0 0 0 0 0 0 0 0 0 0 0 0 0 0 0
0 0 0 0 0 0 0 0 0 0 0 0 0 0 0 0 0 0 0 0 0 0 0 0 0 0 0 0 0 0 0 0 0 0 0 0 0 0 0 0 0 0 0
0 0 0 0 0 0 0 0 0 0 -0 0 0 0 0 0 0 0 0 0 0 0 0 0 0 0 0 0 0 0 0 0 0 0 0 0 0 0 0 0 0 0 0
0 0 0 0 0 0 0 0 0 0 0 0 0 0 0 0 0 0 0 0 0 0 0 0 0 0 0 0 0 0 0 0 0 0 0 0 0 0 0 0 0 0 0
0 0 0 0 0 0 0 0 0 0 0 0 0 -0 -0 0 0 0 0 0 0 0 0 0 0 0 0 0 0 0 0 0 0 0 0 0 0 0 0 0 0 0 -0
0 0 0 0 0 0 0 0 0 0 0 0 0 -0 0 0 0 0 0 0 0 0 0 0 0 0 0 0 0 0 0 0 0 0 0 0 0 0 0 0 0 -0 -0
0 0 0 0 0 0 0 0 0 0 0 0 0 -0 0 0 0 0 0 0 0 0 0 0 0 0 0 0 0 0 0 0 0 0 0 0 0 0 0 0 -0 -0 -0
0 0 0 0 0 0 0 0 0 0 0 0 0 0 -0 0 0 0 0 0 0 0 0 0 0 0 0 0 0 0 0 0 0 0 0 0 0 0 0 -0 0 -0 -0
0 0 0 0 0 0 0 0 0 0 0 0 0 0 0 0 0 0 0 0 0 0 0 0 0 0 0 0 0 0 0 0 0 0 0 0 0 -0 -0 0 0 -0 -0
0 0 0 0 0 0 0 0 -0 0 0 0 0 0 0 -0 0 0 0 0 -0 0 0 0 0 0 0 0 0 0 0 0 0 0 0 0 0 0 0 0 0 0 0
-0 0 0 0 0 0 0 0 0 0 0 0 0 0 0 0 0 0 0 0 0 0 0 0 0 0 0 0 0 0 0 0 0 -0 -0 0 0 -0 0 0 -0 -0 0
0 0 0 0 0 0 0 0 0 0 0 0 0 0 0 0 0 0 0 0 0 0 -0 0 0 0 0 0 0 0 0 0 -0 -0 -0 0 0 -0 -0 0 0 0 0
-0 0 -0 -0 -0 -0 0 -0 -0 0 0 0 0 0 0 0 0 0 0 0 0 0 0 0 0 0 0 0 0 0 -0 -0 -0 -0 -0 -0 -0 -0 -0 0 0 0 0
Wind_Speed_500mb
29 21 25 20 20 13 12 11 15 20 24 23 20 24 26 30 32 38 32 38 33 40 39 37 37 28 39 34 32 38 40 38 39 38 38 33 36 40 40 37 37 33 29
35 32 33 30 22 20 12 12 10 5 13 14 17 21 21 20 39 41 43 40 40 44 40 32 37 38 36 32 36 33 38 40 42 47 46 46 45 43 43 43 44 30 30
32 27 30 27 25 22 23 21 15 10 14 19 18 17 19 28 26 24 32 34 31 36 43 27 32 39 33 29 29 33 34 39 41 48 53 55 53 54 45 46 18 17 26
22 22 25 24 20 18 18 16 12 11 9 15 17 8 19 22 25 23 23 30 40 32 26 31 27 21 29 38 26 28 27 31 38 48 64 73 41 36 18 12 28 27 31
21 18 20 11 11 10 11 7 7 14 16 17 21 20 23 28 31 33 29 23 35 18 21 31 21 14 13 25 25 27 30 31 31 30 26 22 20 18 29 46 36 35 30
15 11 8 5 7 6 12 13 18 20 23 24 24 29 31 28 24 32 33 33 34 26 27 32 20 17 16 15 22 28 30 31 27 22 9 26 19 33 25 20 27 34 37
12 21 21 17 10 9 18 33 40 42 40 34 35 36 35 34 25 30 26 19 17 23 26 30 37 34 24 30 33 35 29 31 28 15 11 14 25 14 9 20 29 32 33
29 23 13 14 19 44 54 53 42 35 36 36 36 35 39 45 13 14 25 21 19 19 24 26 21 19 21 19 20 24 24 16 14 7 11 14 14 10 17 25 30 28 26
40 40 41 27 53 65 54 59 37 31 37 40 28 21 13 13 43 38 26 24 27 25 20 13 15 12 13 20 21 19 13 8 4 8 12 10 13 16 25 31 32 32 30
40 35 40 45 43 49 44 52 57 43 39 48 43 27 29 36 36 25 16 26 19 24 8 9 16 21 27 23 18 13 10 14 15 14 10 12 10 18 25 26 29 31 34
61 54 51 47 42 40 36 38 47 44 40 43 49 45 43 41 37 33 26 15 15 20 15 14 20 22 29 23 9 5 9 10 13 13 13 9 16 25 33 30 31 31 24
55 43 50 52 50 39 34 41 48 49 48 46 50 56 48 40 32 30 31 18 16 11 21 21 16 15 15 7 4 6 11 16 18 15 13 15 22 26 27 27 28 28 28
55 51 42 46 52 52 50 46 38 39 50 52 49 53 52 45 40 35 32 23 13 18 20 18 18 12 5 3 4 10 12 18 21 18 22 23 22 20 20 25 27 28 30
56 57 61 75 67 64 68 65 60 61 60 54 54 57 63 52 43 36 34 29 28 23 17 13 15 9 7 6 4 10 13 21 21 22 20 19 15 13 16 22 27 28 27
56 56 63 67 72 76 79 76 76 75 65 69 70 68 68 67 62 51 36 31 27 20 24 20 16 13 15 11 7 12 17 19 17 16 13 10 12 16 21 25 27 27 25
63 65 70 76 84 88 92 96 97 93 99 99 80 69 63 69 64 52 40 36 33 23 18 16 17 16 22 16 11 12 18 16 9 5 4 7 11 18 21 22 23 22 22
57 60 59 54 53 59 55 55 50 51 59 66 72 69 66 56 67 57 44 36 30 27 24 15 13 16 23 21 16 13 12 6 1 5 6 10 15 20 25 25 26 28 25
68 63 58 55 58 62 52 51 52 53 50 51 61 68 73 65 66 64 51 43 31 31 27 31 16 21 26 22 18 16 13 9 8 12 6 13 20 28 31 32 28 27 26
64 66 65 64 55 54 57 55 53 51 46 46 48 44 58 59 65 69 62 42 29 29 29 20 20 30 34 28 26 22 15 14 17 12 9 14 19 27 33 33 33 34 32
53 54 53 54 56 53 53 52 51 48 46 51 52 46 46 41 59 71 57 36 32 30 31 25 25 24 31 33 34 25 25 20 20 14 11 16 26 31 30 35 38 37 34
47 45 48 51 49 50 52 55 55 52 48 42 40 40 39 51 37 60 47 34 21 22 24 20 25 27 36 41 33 37 27 26 24 18 13 17 25 26 34 37 39 42 38
45 42 39 39 44 44 48 50 54 57 54 45 47 40 36 41 37 35 51 47 36 31 26 20 27 29 35 43 44 44 35 38 29 24 18 14 16 20 37 42 46 46 46
40 40 40 39 41 41 41 42 39 42 47 52 47 41 41 38 35 41 55 41 45 40 34 40 30 34 37 37 37 46 42 34 26 28 24 15 16 23 37 42 48 51 48
35 36 40 42 43 44 40 33 32 36 40 44 37 35 37 29 28 38 51 47 37 34 33 33 47 24 27 30 38 42 32 31 31 31 21 21 18 29 31 42 51 51 55
42 43 44 44 40 34 27 25 18 27 29 32 35 35 33 26 25 28 35 38 32 26 21 22 49 39 32 29 33 35 45 44 41 34 22 13 15 24 24 34 44 56 55
44 43 43 44 41 37 25 21 21 22 28 26 24 26 31 37 32 32 30 34 19 27 23 25 46 48 38 14 15 37 44 46 41 33 23 14 15 10 24 29 40 47 52
Wind_Direction_500mb
228 240 241 243 259 281 312 349 354 350 333 330 344 327 313 328 288 294 300 298 280 287 286 295 302 290 300 297 286 288 289 285 289 293 292 283 273 277 279 285 287 294 304
244 243 250 244 234 245 254 272 275 341 338 350 1 342 326 323 309 309 298 281 270 290 269 287 301 280 319 302 295 295 293 285 283 287 283 279 274 270 274 276 274 286 298
246 238 240 241 244 254 264 238 220 248 272 297 308 326 325 320 312 322 325 288 309 283 269 279 289 280 293 294 300 309 295 292 292 292 289 281 268 255 265 273 296 297 294
247 236 241 253 266 263 251 255 267 273 286 276 281 229 297 301 298 293 310 317 320 332 286 301 307 275 292 295 306 307 307 302 291 290 296 280 200 244 283 321 291 267 281
285 259 240 251 260 270 259 277 295 332 336 329 316 303 293 293 298 302 298 310 315 302 266 281 285 12 309 298 305 317 312 304 297 304 295 253 304 271 280 268 256 280 288
281 248 266 268 267 256 290 312 323 326 335 336 325 318 314 318 321 318 308 299 302 288 281 293 341 322 311 299 319 317 311 309 300 307 252 265 292 287 267 243 262 278 282
246 269 265 244 254 294 324 331 325 324 321 322 320 313 308 307 319 317 332 328 289 280 297 292 302 301 295 297 320 314 312 307 304 300 222 288 287 282 215 269 271 277 283
235 226 254 279 291 314 311 315 310 305 306 318 319 317 320 313 276 317 317 326 312 324 303 297 302 311 289 300 303 312 318 336 8 293 285 293 271 230 268 285 281 288 305
301 276 259 241 305 303 309 305 300 285 293 296 304 286 300 280 302 308 296 317 306 315 322 326 310 334 310 302 310 319 340 34 22 280 282 266 241 271 294 297 295 306 299
321 314 311 310 298 288 284 278 292 293 281 283 288 269 259 278 297 302 283 313 308 316 303 305 311 319 327 317 321 340 8 28 13 5 315 271 276 289 298 302 304 297 288
298 295 295 294 290 274 273 271 276 275 280 277 273 276 277 277 277 279 314 311 295 289 290 302 309 319 324 329 341 331 354 326 319 329 324 285 308 309 306 304 299 294 293
302 305 299 292 290 280 281 270 265 269 273 279 270 270 273 273 270 282 299 302 301 299 293 296 295 325 341 355 274 287 308 322 320 318 311 298 308 311 307 308 305 306 305
282 280 282 282 282 281 283 286 277 272 269 272 272 268 271 263 261 263 276 285 298 316 316 306 308 317 339 346 272 307 309 313 304 291 303 310 310 315 323 323 321 315 313
274 279 278 281 279 279 287 285 286 279 274 271 268 266 270 267 249 255 265 270 276 274 318 317 299 300 223 234 258 320 299 287 286 298 303 294 299 319 323 323 320 315 314
269 270 281 281 279 278 276 274 278 281 273 275 271 266 264 264 260 256 251 255 258 275 287 300 295 286 223 262 271 300 299 284 291 301 301 321 341 344 348 340 340 330 329
284 286 285 281 277 276 275 275 274 269 270 271 271 266 261 254 255 251 244 249 245 258 282 284 280 262 251 241 249 279 299 286 298 336 4 17 11 4 350 350 352 345 348
282 286 286 283 288 290 287 279 279 279 272 266 261 264 265 255 248 249 238 236 229 239 261 287 281 244 239 226 268 286 279 268 251 97 81 39 29 23 13 11 11 8 3
290 291 289 288 288 285 283 285 280 279 278 275 268 268 267 260 248 238 234 227 225 235 264 288 255 238 241 232 242 253 248 220 153 137 112 72 40 32 23 18 22 10 4
284 285 285 284 282 281 280 276 277 278 274 275 272 272 267 258 247 231 233 230 219 221 245 287 263 238 209 229 237 228 227 187 164 147 111 77 44 36 31 29 26 20 13
293 288 281 276 278 277 274 271 273 275 270 268 276 274 263 257 247 221 217 216 223 232 253 278 269 254 225 219 228 230 207 189 168 157 106 66 50 38 38 41 39 32 25
294 289 283 280 279 274 268 269 270 272 269 261 273 269 264 255 217 205 195 198 212 240 248 261 248 235 218 217 223 224 206 185 175 146 124 71 43 29 30 35 40 34 28
302 296 285 281 285 278 276 270 267 266 254 256 262 264 275 260 232 206 206 210 219 226 247 262 242 247 250 236 228 224 201 185 172 153 127 88 40 27 38 44 42 36 32
303 300 293 289 287 284 282 275 269 260 251 248 250 255 259 236 232 213 221 220 237 248 243 238 254 258 258 240 237 226 201 183 174 155 138 109 47 61 57 49 45 40 33
302 298 294 293 294 290 287 274 263 253 250 240 238 242 248 225 218 218 220 227 235 232 241 237 232 248 255 263 245 238 187 170 161 146 135 111 78 66 67 51 46 40 33
304 303 298 295 291 286 285 263 267 249 235 231 231 227 229 228 220 219 213 215 217 229 221 240 217 237 256 262 256 188 169 168 160 153 135 148 118 79 76 53 48 42 35
302 301 296 295 294 289 270 251 237 240 232 233 226 219 223 224 219 209 206 200 219 198 211 215 206 229 248 250 185 177 166 159 154 156 162 180 148 54 81 71 59 48 38
Wind_Speed_850mb
29 21 25 20 20 13 12 11 15 20 24 23 20 24 26 30 32 38 32 38 33 40 39 37 37 28 39 34 32 38 40 38 39 38 38 33 36 40 40 37 37 33 29
35 32 33 30 22 20 12 12 10 5 13 14 17 21 21 20 39 41 43 40 40 44 40 32 37 38 36 32 36 33 38 40 42 47 46 46 45 43 43 43 44 30 30
32 27 30 27 25 22 23 21 15 10 14 19 18 17 19 28 26 24 32 34 31 36 43 27 32 39 33 29 29 33 34 39 41 48 53 55 53 54 45 46 18 17 26
22 22 25 24 20 18 18 16 12 11 9 15 17 8 19 22 25 23 23 30 40 32 26 31 27 21 29 38 26 28 27 31 38 48 64 73 41 36 18 12 28 27 31
21 18 20 11 11 10 11 7 7 14 16 17 21 20 23 28 31 33 29 23 35 18 21 31 21 14 13 25 25 27 30 31 31 30 26 22 20 18 29 46 36 35 30
15 11 8 5 7 6 12 13 18 20 23 24 24 29 31 28 24 32 33 33 34 26 27 32 20 17 16 15 22 28 30 31 27 22 9 26 19 33 25 20 27 34 37
12 21 21 17 10 9 18 33 40 42 40 34 35 36 35 34 25 30 26 19 17 23 26 30 37 34 24 30 33 35 29 31 28 15 11 14 25 14 9 20 29 32 33
29 23 13 14 19 44 54 53 42 35 36 36 36 35 39 45 13 14 25 21 19 19 24 26 21 19 21 19 20 24 24 16 14 7 11 14 14 10 17 25 30 28 26
40 40 41 27 53 65 54 59 37 31 37 40 28 21 13 13 43 38 26 24 27 25 20 13 15 12 13 20 21 19 13 8 4 8 12 10 13 16 25 31 32 32 30
40 35 40 45 43 49 44 52 57 43 39 48 43 27 29 36 36 25 16 26 19 24 8 9 16 21 27 23 18 13 10 14 15 14 10 12 10 18 25 26 29 31 34
61 54 51 47 42 40 36 38 47 44 40 43 49 45 43 41 37 33 26 15 15 20 15 14 20 22 29 23 9 5 9 10 13 13 13 9 16 25 33 30 31 31 24
55 43 50 52 50 39 34 41 48 49 48 46 50 56 48 40 32 30 31 18 16 11 21 21 16 15 15 7 4 6 11 16 18 15 13 15 22 26 27 27 28 28 28
55 51 42 46 52 52 50 46 38 39 50 52 49 53 52 45 40 35 32 23 13 18 20 18 18 12 5 3 4 10 12 18 21 18 22 23 22 20 20 25 27 28 30
56 57 61 75 67 64 68 65 60 61 60 54 54 57 63 52 43 36 34 29 28 23 17 13 15 9 7 6 4 10 13 21 21 22 20 19 15 13 16 22 27 28 27
56 56 63 67 72 76 79 76 76 75 65 69 70 68 68 67 62 51 36 31 27 20 24 20 16 13 15 11 7 12 17 19 17 16 13 10 12 16 21 25 27 27 25
63 65 70 76 84 88 92 96 97 93 99 99 80 69 63 69 64 52 40 36 33 23 18 16 17 16 22 16 11 12 18 16 9 5 4 7 11 18 21 22 23 22 22
57 60 59 54 53 59 55 55 50 51 59 66 72 69 66 56 67 57 44 36 30 27 24 15 13 16 23 21 16 13 12 6 1 5 6 10 15 20 25 25 26 28 25
68 63 58 55 58 62 52 51 52 53 50 51 61 68 73 65 66 64 51 43 31 31 27 31 16 21 26 22 18 16 13 9 8 12 6 13 20 28 31 32 28 27 26
64 66 65 64 55 54 57 55 53 51 46 46 48 44 58 59 65 69 62 42 29 29 29 20 20 30 34 28 26 22 15 14 17 12 9 14 19 27 33 33 33 34 32
53 54 53 54 56 53 53 52 51 48 46 51 52 46 46 41 59 71 57 36 32 30 31 25 25 24 31 33 34 25 25 20 20 14 11 16 26 31 30 35 38 37 34
47 45 48 51 49 50 52 55 55 52 48 42 40 40 39 51 37 60 47 34 21 22 24 20 25 27 36 41 33 37 27 26 24 18 13 17 25 26 34 37 39 42 38
45 42 39 39 44 44 48 50 54 57 54 45 47 40 36 41 37 35 51 47 36 31 26 20 27 29 35 43 44 44 35 38 29 24 18 14 16 20 37 42 46 46 46
40 40 40 39 41 41 41 42 39 42 47 52 47 41 41 38 35 41 55 41 45 40 34 40 30 34 37 37 37 46 42 34 26 28 24 15 16 23 37 42 48 51 48
35 36 40 42 43 44 40 33 32 36 40 44 37 35 37 29 28 38 51 47 37 34 33 33 47 24 27 30 38 42 32 31 31 31 21 21 18 29 31 42 51 51 55
42 43 44 44 40 34 27 25 18 27 29 32 35 35 33 26 25 28 35 38 32 26 21 22 49 39 32 29 33 35 45 44 41 34 22 13 15 24 24 34 44 56 55
44 43 43 44 41 37 25 21 21 22 28 26 24 26 31 37 32 32 30 34 19 27 23 25 46 48 38 14 15 37 44 46 41 33 23 14 15 10 24 29 40 47 52
Wind_Direction_850mb
228 240 241 243 259 281 312 349 354 350 333 330 344 327 313 328 288 294 300 298 280 287 286 295 302 290 300 297 286 288 289 285 289 293 292 283 273 277 279 285 287 294 304
244 243 250 244 234 245 254 272 275 341 338 350 1 342 326 323 309 309 298 281 270 290 269 287 301 280 319 302 295 295 293 285 283 287 283 279 274 270 274 276 274 286 298
246 238 240 241 244 254 264 238 220 248 272 297 308 326 325 320 312 322 325 288 309 283 269 279 289 280 293 294 300 309 295 292 292 292 289 281 268 255 265 273 296 297 294
247 236 241 253 266 263 251 255 267 273 286 276 281 229 297 301 298 293 310 317 320 332 286 301 307 275 292 295 306 307 307 302 291 290 296 280 200 244 283 321 291 267 281
285 259 240 251 260 270 259 277 295 332 336 329 316 303 293 293 298 302 298 310 315 302 266 281 285 12 309 298 305 317 312 304 297 304 295 253 304 271 280 268 256 280 288
281 248 266 268 267 256 290 312 323 326 335 336 325 318 314 318 321 318 308 299 302 288 281 293 341 322 311 299 319 317 311 309 300 307 252 265 292 287 267 243 262 278 282
246 269 265 244 254 294 324 331 325 324 321 322 320 313 308 307 319 317 332 328 289 280 297 292 302 301 295 297 320 314 312 307 304 300 222 288 287 282 215 269 271 277 283
235 226 254 279 291 314 311 315 310 305 306 318 319 317 320 313 276 317 317 326 312 324 303 297 302 311 289 300 303 312 318 336 8 293 285 293 271 230 268 285 281 288 305
301 276 259 241 305 303 309 305 300 285 293 296 304 286 300 280 302 308 296 317 306 315 322 326 310 334 310 302 310 319 340 34 22 280 282 266 241 271 294 297 295 306 299
321 314 311 310 298 288 284 278 292 293 281 283 288 269 259 278 297 302 283 313 308 316 303 305 311 319 327 317 321 340 8 28 13 5 315 271 276 289 298 302 304 297 288
298 295 295 294 290 274 273 271 276 275 280 277 273 276 277 277 277 279 314 311 295 289 290 302 309 319 324 329 341 331 354 326 319 329 324 285 308 309 306 304 299 294 293
302 305 299 292 290 280 281 270 265 269 273 279 270 270 273 273 270 282 299 302 301 299 293 296 295 325 341 355 274 287 308 322 320 318 311 298 308 311 307 308 305 306 305
282 280 282 282 282 281 283 286 277 272 269 272 272 268 271 263 261 263 276 285 298 316 316 306 308 317 339 346 272 307 309 313 304 291 303 310 310 315 323 323 321 315 313
274 279 278 281 279 279 287 285 286 279 274 271 268 266 270 267 249 255 265 270 276 274 318 317 299 300 223 234 258 320 299 287 286 298 303 294 299 319 323 323 320 315 314
269 270 281 281 279 278 276 274 278 281 273 275 271 266 264 264 260 256 251 255 258 275 287 300 295 286 223 262 271 300 299 284 291 301 301 321 341 344 348 340 340 330 329
284 286 285 281 277 276 275 275 274 269 270 271 271 266 261 254 255 251 244 249 245 258 282 284 280 262 251 241 249 279 299 286 298 336 4 17 11 4 350 350 352 345 348
282 286 286 283 288 290 287 279 279 279 272 266 261 264 265 255 248 249 238 236 229 239 261 287 281 244 239 226 268 286 279 268 251 97 81 39 29 23 13 11 11 8 3
290 291 289 288 288 285 283 285 280 279 278 275 268 268 267 260 248 238 234 227 225 235 264 288 255 238 241 232 242 253 248 220 153 137 112 72 40 32 23 18 22 10 4
284 285 285 284 282 281 280 276 277 278 274 275 272 272 267 258 247 231 233 230 219 221 245 287 263 238 209 229 237 228 227 187 164 147 111 77 44 36 31 29 26 20 13
293 288 281 276 278 277 274 271 273 275 270 268 276 274 263 257 247 221 217 216 223 232 253 278 269 254 225 219 228 230 207 189 168 157 106 66 50 38 38 41 39 32 25
294 289 283 280 279 274 268 269 270 272 269 261 273 269 264 255 217 205 195 198 212 240 248 261 248 235 218 217 223 224 206 185 175 146 124 71 43 29 30 35 40 34 28
302 296 285 281 285 278 276 270 267 266 254 256 262 264 275 260 232 206 206 210 219 226 247 262 242 247 250 236 228 224 201 185 172 153 127 88 40 27 38 44 42 36 32
303 300 293 289 287 284 282 275 269 260 251 248 250 255 259 236 232 213 221 220 237 248 243 238 254 258 258 240 237 226 201 183 174 155 138 109 47 61 57 49 45 40 33
302 298 294 293 294 290 287 274 263 253 250 240 238 242 248 225 218 218 220 227 235 232 241 237 232 248 255 263 245 238 187 170 161 146 135 111 78 66 67 51 46 40 33
304 303 298 295 291 286 285 263 267 249 235 231 231 227 229 228 220 219 213 215 217 229 221 240 217 237 256 262 256 188 169 168 160 153 135 148 118 79 76 53 48 42 35
302 301 296 295 294 289 270 251 237 240 232 233 226 219 223 224 219 209 206 200 219 198 211 215 206 229 248 250 185 177 166 159 154 156 162 180 148 54 81 71 59 48 38